Weather reports worldwide

Advertisment
Le Touquet, France (7003): temperature & dewpoint: 12.07.2019 07:00:00 - 18.07.2019 07:00:00 (CEST)Le Touquet, France (7003): temperature 5cm: 12.07.2019 07:00:00 - 18.07.2019 07:00:00 (CEST)Le Touquet, France (7003): wind speed & gusts: 12.07.2019 07:00:00 - 18.07.2019 07:00:00 (CEST)Le Touquet, France (7003): wind direction: 12.07.2019 07:00:00 - 18.07.2019 07:00:00 (CEST)Le Touquet, France (7003): reduced air pressure: 12.07.2019 07:00:00 - 18.07.2019 07:00:00 (CEST)Le Touquet, France (7003): visibility: 12.07.2019 07:00:00 - 18.07.2019 07:00:00 (CEST)Le Touquet, France (7003): sunshine duration: 12.07.2019 07:00:00 - 18.07.2019 07:00:00 (CEST)Le Touquet, France (7003): precipitation: 12.07.2019 07:00:00 - 18.07.2019 07:00:00 (CEST)
Date & Time tt [°C] td [°C] tt 5cm [°C] ff [km/h] ff [kn] fx [km/h] fx [kn] dd ppp [hPa] vv [km] sd [min] rr [mm]
18.07.2019 07:00:00 17,2 15,2 15,9 16 9 39 21 W 1012,0 20 1 0,0
18.07.2019 06:00:00 17,0 15,2 15,3 18 10 43 23 WSW 1012,1 20 0 0,0
18.07.2019 05:00:00 16,8 15,0 14,5 15 8 29 16 WSW 1012,2 26 0 0,0
18.07.2019 04:00:00 16,6 14,8 15,1 13 7 28 15 WSW 1012,7 26 0 0,0
18.07.2019 03:00:00 16,4 14,6 14,8 10 6 27 15 WSW 1013,1 23 0 0,0
18.07.2019 02:00:00 16,5 14,5 13,4 13 7 25 14 W 1013,5 29 0 0,0
18.07.2019 01:00:00 16,4 13,1 13,0 8 5 16 9 W 1013,3 49 0 0,0
18.07.2019 00:00:00 16,0 14,0 12,3 4 2 10 6 W 1013,4 20 0 0,0
17.07.2019 23:00:00 15,8 13,5 10,5 4 2 7 4 SW 1013,6 27 0 0,0
17.07.2019 22:00:00 16,5 13,6 11,8 3 2 10 6 SW 1013,7 29 2 0,0
17.07.2019 21:00:00 17,5 13,8 16,9 7 4 22 12 WNW 1013,9 26 0 0,0
17.07.2019 20:00:00 18,2 13,1 19,4 13 7 22 12 WNW 1014,1 35 0 0,0
17.07.2019 19:00:00 19,1 13,3 22,4 12 6 28 15 WNW 1014,0 40 9 0,0
17.07.2019 18:00:00 19,3 14,5 23,4 13 7 33 18 WNW 1014,1 20 0 0,0
17.07.2019 17:00:00 20,0 16,6 25,6 19 10 36 19 NW 1014,4 15 35 0,0
17.07.2019 16:00:00 22,3 14,4 26,9 18 10 29 16 NNW 1014,3 30 58 0,0
17.07.2019 15:00:00 23,3 12,3 31,7 15 8 26 14 NW 1014,7 32 60 0,0
17.07.2019 14:00:00 23,8 12,4 35,2 12 7 22 12 NW 1015,0 36 60 0,0
17.07.2019 13:00:00 23,0 12,0 37,9 10 5 21 11 WNW 1015,5 20 60 0,0
17.07.2019 12:00:00 23,0 12,9 34,4 6 4 15 8 N 1015,7 32 60 0,0
17.07.2019 11:00:00 22,2 11,9 28,0 5 3 14 8 SSW 1016,1 43 60 0,0
17.07.2019 10:00:00 19,1 13,1 20,7 7 4 15 8 SSE 1016,4 14 60 0,0
17.07.2019 09:00:00 15,9 12,5 14,4 9 5 14 8 SE 1016,4 12 60 0,0
17.07.2019 08:00:00 11,7 10,3 9,1 6 3 12 6 SSE 1016,4 10 60 0,0
17.07.2019 07:00:00 9,8 8,9 7,5 4 2 15 8 S 1016,7 12 26 0,0
17.07.2019 06:00:00 9,5 8,7 6,6 9 5 14 8 SSE 1016,7 12 0 0,0
17.07.2019 05:00:00 10,0 8,9 6,9 7 4 13 7 SSE 1016,8 16 0 0,2
17.07.2019 04:00:00 10,5 9,4 7,4 9 5 14 8 SSE 1017,0 18 0 0,0
17.07.2019 03:00:00 11,2 9,9 7,4 9 5 15 8 SSE 1017,5 19 0 0,0
17.07.2019 02:00:00 12,2 10,4 5,8 7 4 11 6 S 1017,7 27 0 0,0
17.07.2019 01:00:00 12,7 11,4 5,3 6 3 10 5 SSE 1017,7 15 0 0,0
17.07.2019 00:00:00 13,5 12,4 5,8 3 2 6 3 S 1017,8 15 0 0,0
16.07.2019 23:00:00 15,2 13,4 7,6 4 2 10 5 NNW 1018,0 12 0 0,0
16.07.2019 22:00:00 16,1 13,6 13,5 8 4 17 9 NNW 1017,9 20 22 0,0
16.07.2019 21:00:00 18,1 13,8 17,3 11 6 23 12 NW 1018,1 37 60 0,0
16.07.2019 20:00:00 19,1 13,1 19,3 14 7 27 15 NW 1018,3 28 60 0,0
16.07.2019 19:00:00 20,0 13,5 21,8 15 8 28 15 NW 1018,5 20 60 -
16.07.2019 18:00:00 20,2 12,7 23,6 14 8 26 14 NW 1018,6 20 60 0,0
16.07.2019 17:00:00 20,4 12,9 25,2 15 8 29 16 NW 1019,1 - 60 0,0
16.07.2019 16:00:00 20,0 13,2 26,2 17 9 31 17 NNW 1019,6 - 60 0,0
16.07.2019 15:00:00 19,4 12,6 27,9 19 10 37 20 NNW 1019,8 - 60 0,0
16.07.2019 14:00:00 19,1 13,1 29,3 13 7 29 15 WNW 1019,9 33 56 0,0
16.07.2019 13:00:00 19,7 12,2 26,0 7 4 23 13 NNW 1020,2 19 39 0,0
16.07.2019 12:00:00 19,2 11,7 22,0 5 3 13 7 E 1020,5 19 11 0,0
16.07.2019 11:00:00 17,1 11,4 19,9 4 2 16 8 NNW 1020,9 40 0 0,0
16.07.2019 10:00:00 16,2 11,1 16,7 3 2 6 4 S 1021,2 20 0 0,0
16.07.2019 09:00:00 13,4 12,0 12,7 2 1 12 6 SSE 1021,1 16 0 0,0
16.07.2019 08:00:00 10,9 10,3 9,5 4 2 12 6 SSE 1021,0 6 0 0,0
16.07.2019 07:00:00 8,9 8,4 3,1 4 2 12 6 SSE 1021,0 7 0 0,0
16.07.2019 06:00:00 7,7 7,3 2,2 5 3 9 5 SSE 1020,9 6 0 0,0
16.07.2019 05:00:00 8,4 7,8 2,4 3 2 5 3 S 1020,9 3,6 0 0,0
16.07.2019 04:00:00 9,0 8,4 2,8 2 1 9 5 S 1020,9 6 0 0,0
16.07.2019 03:00:00 9,8 8,6 3,2 0 0 4 2 N 1021,2 7 0 0,0
16.07.2019 02:00:00 10,8 9,4 4,2 0 0 4 2 N 1021,4 12 0 0,0
16.07.2019 01:00:00 12,5 9,7 5,7 0 0 11 6 N 1021,6 18 0 0,0
16.07.2019 00:00:00 13,3 9,7 10,2 6 4 18 10 NE 1021,7 24 0 0,0
15.07.2019 23:00:00 14,7 10,1 13,1 10 5 26 14 NE 1021,8 28 0 0,0
15.07.2019 22:00:00 15,8 10,1 15,2 11 6 23 13 ENE 1021,7 25 0 0,0
15.07.2019 21:00:00 16,3 10,8 16,3 13 7 29 16 NNE 1021,6 42 0 0,0
15.07.2019 20:00:00 17,1 10,7 17,7 16 9 32 18 NE 1021,3 60 14 0,0
15.07.2019 19:00:00 18,8 11,1 19,8 20 11 41 22 NE 1021,1 40 56 0,0
15.07.2019 18:00:00 19,5 11,0 20,3 22 12 42 23 NNE 1021,1 59 46 0,0
15.07.2019 17:00:00 20,7 10,5 21,7 15 8 35 19 NE 1021,5 19 30 0,0
15.07.2019 16:00:00 20,1 10,2 22,4 16 9 55 30 NE 1021,7 42 29 0,0
15.07.2019 15:00:00 19,4 9,8 22,3 16 9 41 22 N 1021,8 32 13 0,0
15.07.2019 14:00:00 18,6 10,7 22,4 13 7 34 19 NNE 1022,0 41 7 0,0
15.07.2019 13:00:00 17,6 11,2 18,6 19 10 31 17 NNE 1022,1 51 0 0,0
15.07.2019 12:00:00 16,6 11,7 16,8 13 7 23 12 NNE 1022,3 47 0 0,0
15.07.2019 11:00:00 16,4 11,5 17,0 13 7 23 12 N 1022,1 49 0 0,0
15.07.2019 10:00:00 15,7 11,3 15,6 13 7 21 12 N 1022,2 57 0 0,0
15.07.2019 09:00:00 15,2 11,4 14,6 9 5 16 9 NNE 1022,2 59 0 0,0
15.07.2019 08:00:00 14,5 12,0 13,5 5 3 9 5 N 1021,8 60 0 0,0
15.07.2019 07:00:00 14,1 11,4 12,5 7 4 14 8 NNE 1021,6 60 0 0,0
15.07.2019 06:00:00 13,6 11,3 11,1 9 5 16 9 NE 1021,7 44 0 0,0
15.07.2019 05:00:00 12,2 10,1 7,0 4 2 9 5 NW 1021,7 57 0 0,0
15.07.2019 04:00:00 10,5 8,8 4,6 6 3 9 5 N 1021,9 48 0 0,0
15.07.2019 03:00:00 12,2 10,1 6,5 3 2 11 6 N 1022,2 48 0 0,0
15.07.2019 02:00:00 12,7 10,4 8,4 6 3 12 7 NNE 1022,4 59 0 0,0
15.07.2019 01:00:00 12,6 11,5 9,9 8 5 15 8 NNE 1022,6 46 0 0,0
15.07.2019 00:00:00 13,3 11,9 11,4 10 5 19 10 NNE 1022,6 59 0 0,0
14.07.2019 23:00:00 14,0 11,7 11,4 6 4 23 12 NNE 1022,5 60 0 0,0
14.07.2019 22:00:00 15,7 11,3 14,3 11 6 36 19 NE 1022,2 60 11 0,0
14.07.2019 21:00:00 17,1 10,7 16,2 16 9 46 25 NNE 1022,2 26 60 0,0
14.07.2019 20:00:00 18,7 10,3 18,5 21 11 40 21 NE 1022,1 49 45 0,0
14.07.2019 19:00:00 19,0 10,0 19,3 23 13 47 26 NE 1022,1 60 39 0,0
14.07.2019 18:00:00 20,0 11,0 21,8 25 14 56 31 NE 1021,8 4,1 57 0,0
14.07.2019 17:00:00 20,2 11,1 20,8 27 15 61 33 NNE 1021,8 35 42 0,0
14.07.2019 16:00:00 20,7 9,9 20,7 27 15 64 35 NE 1022,0 16 50 0,0
14.07.2019 15:00:00 20,0 9,8 21,4 24 13 47 26 NE 1022,1 9 28 0,0
14.07.2019 14:00:00 21,1 11,4 21,2 22 12 41 22 NE 1022,1 43 23 0,0
14.07.2019 13:00:00 19,2 11,5 21,5 17 9 40 22 NE 1022,2 42 19 0,0
14.07.2019 12:00:00 19,9 12,4 18,5 18 10 38 20 ENE 1022,4 13 18 0,0
14.07.2019 11:00:00 17,5 12,0 18,5 13 7 31 17 NE 1022,5 60 3 0,0
14.07.2019 10:00:00 17,3 11,6 16,8 15 8 29 16 NE 1022,4 54 9 0,0
14.07.2019 09:00:00 15,7 13,0 15,4 14 7 32 17 NNE 1022,1 20 0 0,0
14.07.2019 08:00:00 15,4 12,7 14,4 10 5 22 12 NNE 1022,0 49 0 0,0
14.07.2019 07:00:00 14,9 12,8 13,9 8 4 18 10 N 1021,6 41 0 0,0
14.07.2019 06:00:00 14,5 13,0 13,4 9 5 16 9 N 1021,4 30 0 0,0
14.07.2019 05:00:00 13,8 13,0 12,6 6 3 9 5 N 1021,4 20 0 0,0
14.07.2019 04:00:00 12,9 12,4 7,2 5 3 9 5 N 1022,0 18 0 0,0
14.07.2019 03:00:00 11,6 10,7 6,2 8 4 10 6 N 1022,2 17 0 0,0
14.07.2019 02:00:00 12,8 11,4 7,1 4 2 12 6 NNW 1022,3 20 0 0,0
14.07.2019 01:00:00 13,7 11,9 11,3 5 3 16 9 ENE 1022,2 37 0 0,0
14.07.2019 00:00:00 14,5 12,4 12,7 9 5 22 12 E 1022,1 19 0 0,0
13.07.2019 23:00:00 15,5 12,6 14,0 11 6 23 13 ENE 1022,2 59 0 0,0
13.07.2019 22:00:00 17,0 13,3 15,2 10 5 24 13 NE 1022,0 60 21 0,0
13.07.2019 21:00:00 18,6 13,7 17,7 11 6 26 14 NNE 1021,8 59 52 0,0
13.07.2019 20:00:00 20,6 13,8 21,2 13 7 29 16 NE 1021,5 27 60 0,0
13.07.2019 19:00:00 21,3 14,2 22,2 16 9 32 18 N 1021,3 22 48 0,0
13.07.2019 18:00:00 21,6 14,7 22,4 13 7 31 17 NE 1021,4 18 45 0,0
13.07.2019 17:00:00 20,9 15,7 24,6 17 9 40 21 N 1021,8 16 47 0,0
13.07.2019 16:00:00 19,9 15,9 22,5 21 11 36 20 NW 1022,1 9 17 0,0
13.07.2019 15:00:00 19,4 15,3 20,9 21 12 36 19 NNW 1022,0 20 0 0,0
13.07.2019 14:00:00 19,3 15,2 21,1 21 12 35 19 NNW 1022,1 20 0 0,0
13.07.2019 13:00:00 20,0 14,1 23,1 9 5 23 12 N 1021,6 38 4 0,0
13.07.2019 12:00:00 19,6 14,4 22,6 13 7 29 16 NE 1021,6 48 10 0,0
13.07.2019 11:00:00 19,1 14,1 20,4 17 9 30 16 N 1021,5 28 4 0,0
13.07.2019 10:00:00 18,2 14,3 18,6 12 7 26 14 NNE 1021,2 20 0 0,0
13.07.2019 09:00:00 17,1 14,6 17,1 13 7 26 14 N 1020,9 34 3 0,0
13.07.2019 08:00:00 15,2 14,7 11,9 6 3 11 6 NNE 1020,3 9 40 0,0
13.07.2019 07:00:00 12,8 12,5 8,2 0 0 6 4 N 1020,0 7 30 0,0
13.07.2019 06:00:00 11,8 11,5 7,2 3 2 10 5 S 1019,5 5 0 0,0
13.07.2019 05:00:00 12,3 12,0 7,0 2 1 11 6 S 1019,2 1,1 0 0,0
13.07.2019 04:00:00 12,2 11,6 7,3 2 1 6 4 S 1018,9 0,8 0 0,0
13.07.2019 03:00:00 12,8 12,2 7,3 0 0 4 2 N 1018,5 0,5 0 0,0
13.07.2019 02:00:00 14,3 14,0 7,8 0 0 6 4 N 1018,7 7 0 0,0
13.07.2019 01:00:00 15,0 14,4 8,9 0 0 4 2 N 1018,3 5 0 0,0
13.07.2019 00:00:00 16,3 15,2 10,5 0 0 9 5 N 1018,1 10 0 0,0
12.07.2019 23:00:00 16,9 15,6 14,5 6 4 16 9 NNW 1017,8 17 0 0,0
12.07.2019 22:00:00 17,8 15,4 16,0 6 4 23 13 NNW 1017,1 18 25 0,0
12.07.2019 21:00:00 18,9 15,4 18,8 14 8 37 20 WNW 1016,5 25 30 0,0
12.07.2019 20:00:00 19,1 15,6 19,6 22 12 41 22 W 1016,0 25 36 0,0
12.07.2019 19:00:00 19,2 16,1 22,5 18 10 46 25 W 1015,9 20 38 0,0
12.07.2019 18:00:00 20,2 16,0 23,5 20 11 44 24 W 1015,7 7 51 0,0
12.07.2019 17:00:00 19,3 16,3 22,4 16 9 44 24 W 1016,0 39 39 0,0
12.07.2019 16:00:00 20,2 16,4 28,8 20 11 46 25 W 1015,6 4,0 60 0,0
12.07.2019 15:00:00 20,2 16,4 28,0 21 12 44 24 W 1015,5 6 52 0,0
12.07.2019 14:00:00 19,7 16,5 24,4 20 11 38 21 W 1015,3 14 18 0,0
12.07.2019 13:00:00 19,6 16,4 25,9 15 8 36 19 WNW 1015,0 45 9 0,0
12.07.2019 12:00:00 19,6 16,1 29,4 16 9 33 18 WNW 1014,7 20 40 0,0
12.07.2019 11:00:00 19,9 15,9 27,4 16 8 34 18 NW 1014,2 42 34 0,0
12.07.2019 10:00:00 19,5 16,3 21,1 16 8 36 19 WNW 1014,2 - 28 0,0
12.07.2019 09:00:00 18,8 16,2 19,1 9 5 20 11 WNW 1014,0 36 5 0,0
12.07.2019 08:00:00 18,0 16,2 17,0 5 3 17 9 NNW 1013,6 32 1 0,0
12.07.2019 07:00:00 17,5 16,4 14,7 8 4 15 8 WNW 1013,2 20 0 0,0

tt = temperature
td = dewpoint
tt 5cm = temperature 5cm
ff = wind speed
fx = gusts
dd = wind direction
ppp = reduced air pressure
vv = visibility
sd = sunshine duration
rr = precipitation

Next stations